Date String (YYYY-MM-DD hh:mm:ss) UTC,Instrument flags,Ambient pressure (hPa),Sample flow (lpm),Bypass flow (lpm),Sample temperature (°C),Ambient temperature (°C),ASC tube jacket temperature (°C),LED temperature (°C),Box temperature (°C),Sample RH (%),Span deviation,Mass concentration (μg/m³),Mass concentration (μg/m³),Mass concentration (μg/m³)
DateTimeUTC,F1_M11,P_M11,Q1_M11,Q2_M11,T1_M11,T2_M11,T3_M11,T4_M11,T5_M11,U1_M11,ZSPAN_M11,X0_M11,X2_M11,X1_M11
2023-05-06 00:00:00,,0823.3,5.00,0.00,30.2,28.5,00.0,38.5,31.7,11.4,0000.0,0010.86,0003.67,0001.79
2023-05-06 00:01:00,,0823.1,4.98,0.00,30.2,28.6,00.0,38.5,31.7,11.5,0000.0,0010.48,0003.65,0001.78
2023-05-06 00:02:00,,0823.1,5.00,0.00,30.2,28.6,00.0,38.5,31.7,11.4,0000.0,0009.86,0003.64,0001.78
2023-05-06 00:03:00,,0823.1,5.01,0.00,30.2,28.6,00.0,38.5,31.7,11.4,0000.0,0011.12,0003.68,0001.76
2023-05-06 00:04:00,,0823.0,5.00,0.00,30.2,28.5,00.0,38.5,31.7,11.4,0000.0,0011.34,0003.69,0001.75
2023-05-06 00:05:00,,0823.0,5.00,0.00,30.2,28.5,00.0,38.5,31.8,11.3,0000.0,0011.42,0003.64,0001.74
2023-05-06 00:06:00,,0823.0,4.99,0.00,30.2,28.5,00.0,38.5,31.7,11.4,0000.0,0011.47,0003.61,0001.73
2023-05-06 00:07:00,,0822.8,5.01,0.00,30.2,28.5,00.0,38.5,31.7,11.4,0000.0,0011.25,0003.63,0001.73
2023-05-06 00:08:00,,0822.9,5.00,0.00,30.2,28.5,00.0,38.6,31.7,11.2,0000.0,0011.00,0003.67,0001.74
2023-05-06 00:09:00,,0823.0,5.01,0.00,30.2,28.5,00.0,38.6,31.7,11.0,0000.0,0010.49,0003.66,0001.75
2023-05-06 00:10:00,,0823.0,5.00,0.00,30.2,28.5,00.0,38.6,31.7,11.0,0000.0,0010.85,0003.62,0001.73
2023-05-06 00:11:00,,0823.0,5.00,0.00,30.2,28.6,00.0,38.6,31.7,10.9,0000.0,0010.90,0003.62,0001.71
2023-05-06 00:12:00,,0822.9,5.00,0.00,30.2,28.6,00.0,38.6,31.7,11.1,0000.0,0011.24,0003.62,0001.70
2023-05-06 00:13:00,,0822.9,5.01,0.00,30.2,28.6,00.0,38.6,31.8,11.1,0000.0,0011.16,0003.59,0001.69
2023-05-06 00:14:00,,0822.9,4.99,0.00,30.2,28.6,00.0,38.6,31.7,11.1,0000.0,0009.97,0003.56,0001.70
2023-05-06 00:15:00,,0823.0,5.00,0.00,30.2,28.6,00.0,38.6,31.7,10.9,0000.0,0009.70,0003.54,0001.71
2023-05-06 00:16:00,,0823.0,5.00,0.00,30.2,28.6,00.0,38.6,31.8,10.9,0000.0,0009.50,0003.51,0001.71
2023-05-06 00:17:00,,0822.9,5.01,0.00,30.3,28.6,00.0,38.6,31.8,11.0,0000.0,0009.38,0003.49,0001.71
2023-05-06 00:18:00,,0822.9,5.00,0.00,30.3,28.2,00.0,38.6,31.8,10.6,0000.0,0009.31,0003.46,0001.71
2023-05-06 00:19:00,,0822.9,5.00,0.00,30.2,26.4,00.0,38.5,31.4,10.6,0000.0,0009.22,0003.44,0001.72
2023-05-06 00:20:00,,0822.8,5.01,0.00,30.1,25.9,00.0,38.4,31.3,10.7,0000.0,0009.09,0003.40,0001.72
2023-05-06 00:21:00,,0822.9,5.01,0.00,30.0,26.0,00.0,38.4,31.1,10.8,0000.0,0008.81,0003.41,0001.72
2023-05-06 00:22:00,,0823.0,4.99,0.00,29.9,26.3,00.0,38.4,31.1,10.8,0000.0,0008.43,0003.38,0001.74
2023-05-06 00:23:00,,0823.0,5.00,0.00,29.9,26.7,00.0,38.4,31.1,11.1,0000.0,0007.76,0003.35,0001.75
2023-05-06 00:24:00,,0823.0,5.00,0.00,29.9,27.0,00.0,38.3,31.2,11.0,0000.0,0007.76,0003.38,0001.75
2023-05-06 00:25:00,,0823.0,5.01,0.00,29.8,27.2,00.0,38.3,31.2,10.9,0000.0,0007.63,0003.37,0001.75
2023-05-06 00:26:00,,0823.0,4.99,0.00,29.8,27.5,00.0,38.3,31.3,10.8,0000.0,0007.59,0003.35,0001.75
2023-05-06 00:27:00,,0823.1,4.99,0.00,29.8,27.7,00.0,38.3,31.3,10.6,0000.0,0007.65,0003.33,0001.75
2023-05-06 00:28:00,,0823.1,5.01,0.00,29.8,27.8,00.0,38.3,31.3,10.6,0000.0,0007.94,0003.34,0001.74
2023-05-06 00:29:00,,0823.1,5.01,0.00,29.9,27.9,00.0,38.3,31.4,10.7,0000.0,0007.89,0003.34,0001.72
2023-05-06 00:30:00,,0823.1,5.00,0.00,29.9,28.1,00.0,38.3,31.4,10.5,0000.0,0007.83,0003.37,0001.72
2023-05-06 00:31:00,,0823.1,5.00,0.00,29.9,28.2,00.0,38.3,31.4,10.4,0000.0,0007.89,0003.37,0001.72
2023-05-06 00:32:00,,0823.1,4.99,0.00,29.9,28.2,00.0,38.3,31.4,10.6,0000.0,0008.04,0003.40,0001.73
2023-05-06 00:33:00,,0823.2,5.00,0.00,29.9,28.3,00.0,38.3,31.4,10.8,0000.0,0008.13,0003.42,0001.71
2023-05-06 00:34:00,,0823.3,5.00,0.00,29.9,28.4,00.0,38.3,31.5,11.0,0000.0,0008.07,0003.42,0001.71
2023-05-06 00:35:00,,0823.3,4.98,0.00,30.0,28.4,00.0,38.3,31.5,10.7,0000.0,0007.93,0003.38,0001.70
2023-05-06 00:36:00,,0823.2,5.01,0.00,30.0,28.5,00.0,38.3,31.5,10.6,0000.0,0007.86,0003.36,0001.70
2023-05-06 00:37:00,,0823.3,5.01,0.00,30.0,28.5,00.0,38.3,31.5,10.3,0000.0,0007.76,0003.34,0001.69
2023-05-06 00:38:00,,0823.2,4.99,0.00,30.0,28.6,00.0,38.3,31.5,10.0,0000.0,0007.68,0003.36,0001.70
2023-05-06 00:39:00,,0823.2,5.00,0.00,30.0,28.6,00.0,38.3,31.6,09.7,0000.0,0007.36,0003.34,0001.71
2023-05-06 00:40:00,,0823.2,5.02,0.00,30.0,28.6,00.0,38.3,31.6,09.8,0000.0,0007.38,0003.35,0001.72
2023-05-06 00:41:00,,0823.3,5.00,0.00,30.1,28.6,00.0,38.3,31.6,09.6,0000.0,0007.29,0003.30,0001.71
2023-05-06 00:42:00,,0823.3,4.99,0.00,30.1,28.6,00.0,38.4,31.6,09.5,0000.0,0007.17,0003.30,0001.71
2023-05-06 00:43:00,,0823.4,5.00,0.00,30.1,28.6,00.0,38.4,31.6,09.6,0000.0,0006.91,0003.28,0001.72
2023-05-06 00:44:00,,0823.3,5.02,0.00,30.1,28.6,00.0,38.4,31.7,09.6,0000.0,0007.15,0003.31,0001.75
2023-05-06 00:45:00,,0823.3,5.00,0.00,30.1,28.7,00.0,38.4,31.7,09.6,0000.0,0007.46,0003.30,0001.75
2023-05-06 00:46:00,,0823.3,4.99,0.00,30.1,28.7,00.0,38.4,31.7,09.5,0000.0,0007.82,0003.30,0001.75
2023-05-06 00:47:00,,0823.1,5.00,0.00,30.1,28.7,00.0,38.4,31.7,09.6,0000.0,0008.10,0003.35,0001.77
2023-05-06 00:48:00,,0823.1,5.01,0.00,30.1,28.7,00.0,38.4,31.7,09.6,0000.0,0008.27,0003.38,0001.76
2023-05-06 00:49:00,,0823.2,4.99,0.00,30.2,28.7,00.0,38.5,31.7,09.6,0000.0,0008.28,0003.40,0001.75
2023-05-06 00:50:00,,0823.2,4.99,0.00,30.2,28.7,00.0,38.5,31.7,09.7,0000.0,0008.30,0003.42,0001.74
2023-05-06 00:51:00,,0823.2,5.02,0.00,30.2,28.7,00.0,38.5,31.7,09.5,0000.0,0008.31,0003.42,0001.75
2023-05-06 00:52:00,,0823.1,5.01,0.00,30.2,28.7,00.0,38.5,31.7,09.6,0000.0,0008.38,0003.42,0001.76
2023-05-06 00:53:00,,0823.2,4.99,0.00,30.2,28.7,00.0,38.5,31.7,09.5,0000.0,0008.83,0003.44,0001.76
2023-05-06 00:54:00,,0823.1,4.99,0.00,30.2,28.7,00.0,38.5,31.7,09.6,0000.0,0008.81,0003.44,0001.76
2023-05-06 00:55:00,,0823.2,5.02,0.00,30.2,28.7,00.0,38.5,31.7,09.5,0000.0,0008.75,0003.38,0001.75
2023-05-06 00:56:00,,0823.2,5.00,0.00,30.2,28.7,00.0,38.5,31.7,09.7,0000.0,0008.54,0003.37,0001.77
2023-05-06 00:57:00,,0823.2,5.00,0.00,30.2,28.7,00.0,38.5,31.7,09.5,0000.0,0008.39,0003.41,0001.78
2023-05-06 00:58:00,,0823.2,5.00,0.00,30.2,28.7,00.0,38.6,31.7,09.4,0000.0,0008.21,0003.40,0001.77
2023-05-06 00:59:00,,0823.2,5.00,0.00,30.2,28.7,00.0,38.6,31.7,09.5,0000.0,0008.16,0003.39,0001.77
